{"data":{"norad_id":53733,"epoch":"2026-05-25T02:04:16.281120Z","epoch_age_seconds":61369,"freshness":"FRESH","line1":"1 53733U 22107AK  26145.08629955 -.00000569  00000+0 -17661-4 0  9991","line2":"2 53733  53.2136 271.3928 0001042  78.6985 281.4124 15.08847993206111","mean_motion":15.08847993,"eccentricity":0.0001042,"inclination_deg":53.2136,"raan_deg":271.3928,"arg_perigee_deg":78.6985,"mean_anomaly_deg":281.4124,"bstar":-1.7661e-5,"rev_number":20611,"period_min":95.437049105052,"perigee_km":538.99811707782,"apogee_km":540.43979825939,"semimajor_km":6917.8559576686,"source":"CELESTRAK","updated_at":"2026-05-25T13:38:17.537891Z"}}